Theta_e
336 344 349 352 351 351 351 351 351 350 349 349 348 349 349 348 348 347 348 350 348 347 346 344 343 343 344 343 340 339 338 339 340 343 349 350 351 348 347 348 347 347 351
337 344 348 352 352 351 351 350 350 350 349 349 351 349 348 347 347 347 346 348 346 345 344 342 341 339 339 339 337 335 334 334 336 338 345 349 349 346 346 345 348 348 350
336 342 348 350 351 352 351 350 350 350 349 349 349 347 346 345 344 344 345 347 346 343 341 339 337 337 336 334 331 332 331 331 333 335 341 346 346 347 345 345 346 347 348
335 341 345 348 351 351 351 350 350 350 349 348 347 345 343 341 340 340 339 340 341 340 339 337 335 333 331 328 328 329 328 329 330 334 338 340 344 346 344 343 343 345 346
334 340 343 346 351 351 351 350 349 349 350 349 347 345 342 339 337 337 337 337 338 337 336 331 328 328 325 325 324 324 325 326 326 332 337 339 342 345 344 343 342 343 344
334 339 343 346 350 351 351 350 349 348 350 350 348 343 341 338 336 334 335 336 335 335 331 327 325 324 323 321 320 320 320 321 325 331 335 340 343 345 344 342 342 341 341
334 336 341 345 348 350 350 350 350 349 350 350 347 344 342 340 336 334 333 334 334 331 327 324 323 321 320 319 317 316 316 318 325 328 332 336 335 339 339 338 337 338 338
333 336 337 338 342 346 348 348 348 348 349 348 346 344 341 339 336 333 331 333 330 327 323 323 322 320 319 317 315 314 312 315 320 325 329 331 332 334 334 333 332 333 334
334 336 338 340 341 337 342 344 345 347 347 344 342 339 339 337 334 331 330 330 327 324 324 323 321 319 317 315 312 310 309 312 315 319 323 326 326 328 328 329 329 329 330
334 335 336 338 340 342 344 335 337 340 339 338 336 334 333 332 331 330 328 328 325 324 324 321 319 317 315 312 309 306 304 309 309 313 316 317 320 324 325 325 325 326 326
331 334 336 336 337 338 340 338 332 333 333 332 332 329 327 331 329 326 324 326 325 324 322 320 317 315 312 308 304 301 304 305 306 308 310 313 317 319 320 321 322 323 324
326 331 334 335 336 336 335 339 340 339 337 337 335 334 331 331 329 324 320 323 326 323 320 318 315 311 307 306 303 302 304 304 304 305 307 309 313 315 317 319 320 322 324
324 327 331 333 335 334 335 335 336 335 334 336 335 333 330 330 327 322 322 321 322 316 315 314 309 304 305 305 304 304 303 304 304 304 303 306 310 313 315 316 320 323 322
319 324 327 330 332 333 334 333 333 332 334 335 334 331 330 328 324 321 320 321 322 317 316 313 308 307 304 303 303 302 302 303 303 303 302 304 309 311 313 317 321 320 321
316 320 325 328 328 330 332 332 331 331 332 332 331 327 329 325 322 319 319 319 319 316 313 309 306 304 304 302 301 301 301 301 301 302 305 306 308 312 315 319 319 320 321
315 318 321 325 327 327 329 331 330 330 330 330 329 329 328 324 321 318 317 317 316 314 311 306 304 303 303 303 300 300 300 300 300 301 303 306 307 312 315 317 319 321 323
314 316 319 321 324 325 327 328 329 329 328 329 328 329 326 323 319 316 315 315 314 312 308 305 303 303 302 301 300 299 299 299 299 299 301 305 309 312 316 316 319 322 319
313 314 316 317 320 323 324 326 327 327 327 327 327 326 324 321 318 315 312 312 312 307 304 302 301 300 301 299 299 299 299 299 300 300 301 304 310 312 310 311 315 320 318
312 312 313 315 317 319 322 323 324 325 324 324 324 323 322 319 316 313 310 310 309 304 302 301 300 300 299 299 299 299 299 299 299 298 301 304 308 311 309 303 303 305 308
311 311 311 312 312 315 317 320 321 322 322 322 321 320 319 317 314 311 309 308 306 302 300 300 300 300 300 299 294 295 297 299 299 299 301 304 304 304 305 305 303 299 299
308 308 308 309 310 310 312 314 315 316 318 318 319 319 318 315 313 310 307 306 304 301 300 300 299 298 298 299 295 296 295 296 295 297 300 300 299 299 298 299 300 299 298
303 304 305 306 307 307 310 312 313 313 315 315 316 316 315 314 311 308 306 304 303 300 300 299 298 296 297 297 295 296 292 292 294 294 297 298 297 297 296 296 296 296 297
300 301 302 303 305 305 306 308 309 310 308 308 310 312 312 312 310 308 305 304 302 300 299 299 298 297 294 295 298 298 295 293 292 293 293 295 295 294 295 294 293 294 295
299 301 301 301 302 302 304 304 304 304 302 304 306 308 309 309 308 307 305 304 302 300 299 299 298 297 297 293 294 295 297 298 293 288 292 292 293 292 293 293 292 292 294
297 298 299 299 299 300 302 302 302 301 303 304 305 306 306 306 306 305 305 303 301 300 299 298 297 296 297 296 293 293 293 294 295 295 289 289 291 292 292 292 292 292 292
296 297 297 296 296 298 298 299 300 300 300 300 301 302 302 303 302 302 303 302 301 300 298 298 297 296 296 296 295 295 292 291 290 291 294 290 289 290 291 292 291 291 291
Wind_Speed
9 16 15 15 14 12 12 11 10 11 11 12 11 10 11 9 8 8 7 10 10 10 9 8 8 9 11 9 7 7 7 8 7 7 8 7 12 11 11 12 8 11 12
13 16 14 15 14 13 12 11 11 11 12 12 14 12 10 10 9 8 7 8 8 9 9 8 7 6 8 8 8 6 6 6 6 5 3 13 11 11 11 12 12 10 12
14 15 17 13 14 13 13 12 12 11 12 11 11 11 9 8 8 8 7 9 9 8 8 8 6 6 6 6 5 6 6 6 6 6 6 7 9 9 10 11 10 11 12
13 14 16 12 15 14 13 12 11 10 11 9 10 10 9 6 4 4 5 5 6 7 7 7 6 5 5 5 5 5 5 6 6 7 5 2 10 9 9 10 10 10 11
14 13 14 13 15 15 14 13 11 10 10 12 11 11 10 6 4 3 2 3 4 6 7 6 5 5 5 5 4 4 4 4 5 7 3 2 4 9 8 8 10 12 13
13 14 15 16 12 15 15 14 13 12 12 12 12 11 9 5 4 3 1 2 3 5 5 5 4 5 5 4 4 4 4 4 8 3 2 7 11 11 12 11 10 9 9
12 12 13 14 14 12 15 15 14 13 13 14 13 11 9 8 7 5 4 4 5 5 4 5 5 5 5 5 4 4 5 5 2 3 3 6 9 7 9 8 7 7 8
11 12 11 12 11 12 13 15 14 13 14 12 14 11 9 9 6 7 6 6 6 5 5 6 5 5 5 5 6 6 6 7 1 3 3 7 8 7 6 5 5 5 6
12 12 12 13 13 9 12 12 13 13 13 13 10 11 7 7 7 7 7 7 6 6 7 7 6 6 6 6 6 6 6 7 3 3 2 4 8 4 3 3 4 4 5
12 13 13 13 14 14 12 9 11 12 12 12 10 10 9 8 7 6 5 6 8 8 7 7 7 6 6 6 5 4 2 4 5 3 4 5 5 3 3 3 3 3 4
11 13 14 14 14 14 14 12 8 7 6 8 9 9 10 6 9 10 9 9 9 9 9 8 7 7 7 6 4 1 6 2 2 2 4 6 3 2 1 1 2 3 5
15 14 14 14 15 13 11 13 13 9 9 10 10 10 7 10 8 9 9 8 8 8 9 8 7 6 5 4 4 5 1 2 2 2 4 4 3 1 1 2 2 4 6
15 12 15 15 15 14 11 8 6 6 5 7 11 10 8 8 6 5 5 6 7 8 6 7 6 6 3 2 1 1 2 1 1 1 5 4 5 2 1 1 4 5 5
14 15 16 17 15 15 9 9 9 9 9 9 9 12 9 6 7 7 6 7 7 6 7 6 3 3 3 2 2 2 2 2 1 1 5 3 6 4 3 4 4 4 5
15 15 16 16 16 13 14 9 10 9 9 9 9 10 9 9 8 8 8 7 7 7 6 5 4 5 4 3 2 1 1 1 2 2 1 2 6 6 5 4 5 5 6
14 15 16 16 16 16 14 15 10 9 10 10 9 11 14 9 8 8 7 7 7 7 6 6 6 5 4 4 3 2 1 0 0 1 1 2 3 8 4 5 5 7 11
12 13 14 15 15 16 16 14 11 9 10 9 9 13 13 12 11 10 8 8 7 6 7 6 6 5 4 4 4 3 2 1 1 1 1 1 3 8 8 4 6 8 11
10 11 13 11 14 16 15 12 9 9 9 9 9 9 13 13 12 10 8 8 8 7 7 6 6 6 5 5 5 4 3 3 3 3 3 3 2 4 10 14 10 5 11
8 9 11 11 13 13 13 10 11 11 9 8 8 8 12 13 13 10 8 9 10 8 8 8 8 8 7 6 5 4 3 3 4 3 4 4 3 3 4 8 13 12 9
7 5 6 6 9 10 9 8 7 8 8 8 8 8 11 10 12 10 8 9 9 8 8 8 8 7 7 7 7 5 4 3 3 4 5 5 4 3 3 4 3 5 6
15 11 7 4 5 5 7 7 8 9 8 8 8 10 10 10 12 11 8 10 10 9 9 10 7 9 6 6 5 3 3 4 5 4 5 5 6 6 5 4 2 2 3
18 17 15 10 4 3 5 5 6 6 7 7 7 8 10 11 12 11 11 10 11 8 11 11 10 7 5 8 5 4 4 4 5 6 4 5 6 4 5 4 4 3 2
19 18 16 15 11 6 3 3 3 4 2 5 6 6 7 10 11 12 13 10 11 10 9 10 11 13 8 8 10 4 4 5 5 5 7 5 7 5 5 5 4 4 4
17 16 17 15 13 10 8 4 4 5 5 6 5 4 5 8 10 12 13 13 13 10 12 12 11 11 9 8 6 7 2 1 4 4 5 7 7 7 7 5 6 5 5
16 15 15 15 16 15 11 8 4 4 5 6 5 1 5 6 9 11 12 13 12 10 13 14 14 15 11 10 8 4 5 4 4 2 4 5 6 7 6 7 6 6 7
14 13 15 15 15 17 15 12 10 7 6 5 6 3 3 4 5 10 12 12 12 12 12 12 13 15 14 12 10 9 8 7 7 5 3 6 8 8 8 7 7 7 7
Wind_Direction
165 147 161 171 172 168 161 162 151 146 147 142 138 136 126 121 112 105 104 107 105 100 96 87 80 78 73 66 53 40 40 47 48 64 83 88 100 84 65 36 67 63 51
162 153 164 173 171 169 170 167 162 162 161 158 147 134 127 127 124 106 144 124 119 107 97 89 78 76 67 53 46 30 27 37 29 17 77 94 83 84 73 64 48 66 61
165 160 171 175 171 170 169 169 169 176 166 159 147 132 131 139 131 117 105 116 118 109 102 92 87 75 70 62 50 36 23 20 18 336 292 126 101 86 80 75 72 72 66
163 169 179 171 172 172 171 167 171 176 171 167 157 150 153 138 139 138 125 126 121 112 99 95 92 88 78 61 43 47 35 16 358 311 265 36 110 95 80 75 68 63 78
167 176 180 165 177 175 174 171 177 182 183 173 169 162 148 147 176 159 145 146 121 107 107 107 105 96 81 68 53 45 54 15 322 294 32 333 100 103 89 77 81 65 52
169 177 147 164 186 181 178 179 184 191 193 184 183 172 155 165 170 190 166 181 143 116 122 115 115 95 77 61 59 41 43 354 295 58 42 83 55 84 86 80 77 72 73
177 184 161 170 186 189 187 184 187 194 199 196 174 183 146 156 193 212 216 200 174 148 139 129 109 104 95 79 73 54 30 3 0 69 57 49 47 55 68 66 61 66 75
187 187 192 178 189 190 188 191 193 200 204 186 174 141 160 162 177 212 214 174 171 167 159 140 130 114 99 83 69 54 24 350 127 73 60 69 19 51 67 79 61 54 59
194 188 196 186 195 190 193 197 197 201 196 177 177 141 171 159 179 209 220 188 185 179 160 142 134 122 106 89 74 58 31 349 59 57 86 82 6 58 57 68 63 61 65
201 193 198 197 193 199 198 184 183 184 179 177 164 160 159 157 169 193 185 194 189 178 159 149 139 132 124 115 96 84 25 313 72 95 60 46 344 52 59 55 64 70 69
211 205 203 203 201 202 203 189 192 189 190 165 155 151 149 199 198 196 200 176 192 168 164 157 151 139 121 99 90 340 288 58 78 49 67 10 1 49 57 53 95 102 99
212 209 211 207 207 208 205 199 199 197 205 205 197 186 182 212 211 206 179 170 172 156 164 164 144 138 202 166 146 219 77 65 65 53 71 1 351 326 117 109 119 115 106
218 209 210 210 209 209 212 200 203 207 209 215 204 193 184 210 199 195 172 179 170 160 176 171 163 202 187 191 126 111 101 204 90 94 75 352 330 304 235 175 158 120 114
239 217 207 213 209 209 211 198 203 201 205 212 197 196 193 196 192 191 193 186 187 174 189 177 180 160 170 142 125 104 46 345 8 15 100 352 329 297 250 206 144 151 142
242 227 215 204 210 209 207 206 211 207 204 209 196 193 199 194 195 193 193 184 181 177 180 181 179 176 165 151 140 129 107 50 6 335 21 355 332 319 248 169 174 151 154
236 230 221 211 209 208 208 211 204 210 201 209 202 195 199 198 192 194 192 192 187 181 180 182 177 174 172 161 160 163 152 184 312 314 331 116 333 348 310 206 164 175 105
233 228 223 216 210 215 211 212 215 208 209 201 203 202 195 207 197 193 191 190 192 177 176 177 174 172 170 172 173 170 177 199 227 210 239 261 148 46 19 192 175 153 120
249 237 225 212 212 213 217 211 212 216 206 213 203 202 202 204 205 195 191 190 186 175 180 181 176 178 184 181 173 179 190 192 198 198 192 200 201 129 64 36 43 175 130
263 250 235 230 219 221 224 223 217 217 218 213 212 206 205 203 209 197 198 189 181 181 189 184 179 184 180 180 177 169 185 188 192 195 182 200 137 179 118 79 69 52 86
336 319 282 238 228 222 227 224 227 222 220 221 220 216 208 203 206 208 200 191 181 186 188 189 186 191 182 173 170 170 181 184 194 197 187 174 174 159 161 156 160 88 72
34 29 6 295 225 223 217 222 219 223 214 221 223 220 216 205 206 210 207 194 181 192 194 188 181 179 185 158 138 159 183 210 215 202 194 180 174 182 167 173 175 139 121
24 25 24 13 340 229 245 238 242 237 233 230 226 228 215 207 202 206 209 204 191 192 194 191 185 173 179 177 176 147 183 202 219 214 204 195 184 182 187 190 169 185 174
27 23 29 24 20 4 320 285 264 284 288 268 233 236 223 223 207 206 208 208 194 193 197 194 189 184 182 192 223 170 166 218 145 177 206 205 195 193 190 177 180 190 205
24 19 30 33 40 37 13 337 325 283 275 269 256 234 224 223 228 223 215 212 204 198 199 192 191 196 191 190 206 255 260 313 179 172 205 208 203 203 189 182 180 185 187
28 25 26 32 35 36 34 13 345 324 307 313 307 202 212 223 222 237 227 229 222 211 204 192 192 197 201 192 195 155 205 233 261 193 162 186 215 212 197 192 180 182 185
32 33 28 30 36 33 29 22 8 349 333 315 311 306 274 242 229 235 235 230 229 227 219 211 202 199 202 207 195 193 192 183 194 197 184 165 188 200 198 195 191 188 185